Starlink 4467

operational
NORAD ID: 53686 Int'l Des: 2022-105 Owner: SPXS Country: US Constellation: starlink
LEOCIRCULARRETROGRADESSO

About Starlink 4467

Description loading...

Live Position

Loading 3D Globe...

Upcoming Passes

Altitude History

Altitude vs Time

uPlot chart will show altitude changes over time

Two-Line Element Set

1 53686U 22105AQ 25306.39078568 .00002658 00000-0 21137-3 0 9998
2 53686 97.6008 185.6416 0004128 80.9943 279.1748 15.01264496174142
Epoch: Nov 2, 2025 • Age: 24 hours

Current Status

Altitude 573.6 km
Velocity 7.58 km/s
Sub-Earth Point 80.77°N, 57.25°W
Launch Date Aug 31, 2022
Age 3.1 years
Type internet

Technical Details

Classification Payload
Mass 300.00 kg
Dry Mass 290.00 kg
Total Mass 300.00 kg
Length 0.20 m
Diameter 2.80 m
Span 9.00 m
Shape Box + pan
Manufacturer SPXS
Bus Type Starlink
Phase Status In Orbit
Owner/State SPXS/US

Large Constellations

Loading constellations...